AirNav   ProFlight Series 2 Aviation Headset
 
 985 users online  

PN34 Keystone Heliplex Heliport
Coatsville, Pennsylvania, USA

GOING TO COATSVILLE?


FAA INFORMATION EFFECTIVE 18 JUNE 2020

Location

FAA Identifier: PN34
Lat/Long: 39-58-40.9000N 075-52-56.5000W
39-58.681667N 075-52.941667W
39.9780278,-75.8823611
(estimated)
Elevation: 642 ft. / 196 m (estimated)
From city: 2 miles W of COATSVILLE, PA
Time zone: UTC -4 (UTC -5 during Standard Time)
Zip code: 19365

Heliport Operations

Heliport use: Private use. Permission required prior to landing
Activation date: 11/2007
Control tower: no
ARTCC: NEW YORK CENTER
FSS: WILLIAMSPORT FLIGHT SERVICE STATION
Attendance: 0700-2000
Segmented circle: no

Heliport Communications

WX AWOS-3 at MQS (0.8 nm E): 126.25 (610-384-6132)
WX AWOS-3T at OQN (14 nm E): 121.4 ((610) 692-6190)

Nearby radio navigation aids

VOR radial/distance  VOR name  Freq  Var
MXEr299/10.4MODENA VORTAC113.2009W
LRPr123/20.6LANCASTER VOR/DME117.3009W
PTWr234/20.8POTTSTOWN VORTAC116.5009W
DQOr335/22.0DUPONT VORTAC114.0010W
OODr318/33.7WOODSTOWN VORTAC112.8010W
ETXr203/37.3EAST TEXAS VOR/DME110.2009W

 
NDB name  Hdg/Dist  Freq  Var  ID
AMBLER264/28.827512WING .. -. --.

Heliport Services

Runway Information

Helipad H1

Dimensions: 41 x 41 ft. / 12 x 12 m
Surface: asphalt
Traffic pattern: leftleft

Heliport Ownership and Management from official FAA records

Ownership: Privately-owned
Owner: SIKORSKY COMMERCIAL, INC
110 E. STEWART HUSTON DR
COATESVILLE, PA 19320
Phone 610-883-4566
Manager: CHUCK DILABBIO
110 E. STEWART HUSTON DRIVE
COATESVILLE, PA 19320
Phone 610-883-4565

Additional Remarks

60 FT WTR TWR .32 NM S OF PAD.
TLOF MKD AT 60 FT X 60 FT SQ.
FOR CD CTC PHILADELPHIA APCH AT 800-354-9884.

Instrument Procedures

There are no published instrument procedures at PN34.

Some nearby airports with instrument procedures:

KMQS - Chester County G O Carlson Airport (1 nm E)
N57 - New Garden Airport (10 nm SE)
KOQN - Brandywine Regional Airport (14 nm E)
N47 - Pottstown Municipal Airport (20 nm NE)
KLNS - Lancaster Airport (21 nm NW)
 
Loc | Ops | Rwys | IFR | FBO | Links
Com | Nav | Svcs | Stats | Notes
Aerial photo
WARNING: Photo may not be current or correct
Aerial photo of PN34 (Keystone Heliplex Heliport)
Photo by Stacy Sheard

Do you have a better or more recent aerial photo of Keystone Heliplex Heliport that you would like to share? If so, please send us your photo.

 
Sectional chart

 
Airport distance calculator
Flying to Keystone Heliplex Heliport? Find the distance to fly.

From to PN34

Sunrise and sunset
Times for 06-Jul-2020
 Local
(UTC-4)
 Zulu
(UTC)
Morning civil twilight05:1009:10
Sunrise05:4309:43
Sunset20:3400:34
Evening civil twilight21:0601:06

Current date and time
Zulu (UTC)  07-Jul-2020 01:05:56
Local (UTC-4)  06-Jul-2020 21:05:56
 
METAR
KMQS 070055Z AUTO VRB05KT 6SM -RA FEW038 SCT047 SCT085 20/20 A3012 RMK AO2 P0004
KOQN 
14nm E 
070055Z AUTO 18003KT 7SM RA SCT025 BKN043 OVC048 21/20 A3009 RMK AO2 P0006 LTG DSNT SW AND W
TAF
KLNS 
21nm NW 
062130Z 0622/0718 23005KT P6SM VCTS SCT050CB TEMPO 0622/0702 3SM TSRA BKN025CB FM070300 VRB03KT P6SM SCT050 FM071000 VRB02KT 5SM BR BKN010 FM071500 15003KT P6SM BKN025
KILG 
23nm SE 
062251Z 0623/0718 12009KT 6SM -SHRA BKN040 BKN100 TEMPO 0623/0701 1SM TSRA BR SCT025CB OVC040 FM070100 16008KT P6SM VCTS SCT040CB SCT150 FM070200 17005KT P6SM BKN100 FM070600 VRB03KT 4SM BR SCT100 FM071400 18007KT P6SM SCT200
KRDG 
24nm N 
062122Z 0621/0718 13012KT P6SM VCTS SCT040CB BKN080 TEMPO 0621/0623 2SM TSRA BKN025CB OVC040 FM070200 VRB03KT P6SM BKN040 BKN100 FM070700 VRB02KT P6SM OVC020
NOTAMs
Click for the latest NOTAMs
NOTAMs are issued by the DoD/FAA and will open in a separate window not controlled by AirNav.

 

 
 

Would you like to see your business listed on this page?

 If your business provides an interesting product or service to pilots, flight crews, aircraft, or users of the Keystone Heliplex Heliport, you should consider listing it here.  To start the listing process, click on the button below
 
Add a business
 

Other Pages about Keystone Heliplex Heliport

Update a link
 
Copyright © AirNav, LLC. All rights reserved. Privacy Policy  Contact